Dewpoint
55 58 58 58 59 58 57 55 51 48 47 45 42 42 42 43 43 44 44 44 45 45 44 44 45 44 42 42 43 42 41 42 44 44 45 45 45 44 44 43 42 44 45
54 56 57 58 57 56 56 55 52 49 47 45 43 42 42 43 43 44 44 44 44 45 44 44 44 44 43 43 43 42 42 42 42 41 43 42 44 42 43 43 42 41 43
52 54 57 56 56 55 55 55 55 48 47 46 44 45 45 44 43 43 43 44 44 45 44 44 44 44 44 44 43 43 41 40 42 41 40 39 39 40 41 41 41 41 41
53 54 56 56 55 55 55 56 55 51 47 47 46 43 40 40 41 42 44 44 44 45 45 44 44 44 45 45 44 43 42 42 40 42 41 39 40 38 38 40 40 41 40
53 54 54 55 54 53 54 55 56 53 49 47 46 44 41 41 43 43 43 44 44 44 44 44 44 44 45 45 45 44 43 42 41 41 41 41 40 39 38 38 39 40 43
50 53 53 51 52 54 55 52 56 53 50 48 47 46 42 43 44 43 42 43 44 45 45 44 44 44 45 45 45 45 44 43 43 43 42 41 39 38 37 37 38 38 40
45 53 54 53 53 57 57 56 55 52 51 49 49 49 49 44 43 43 43 43 43 44 45 45 44 44 45 45 45 45 45 44 43 43 42 42 41 42 40 38 38 37 39
43 50 55 55 55 57 57 56 55 53 52 51 50 49 47 46 44 44 44 43 43 43 45 45 44 44 44 45 45 45 45 45 44 43 43 43 43 43 42 39 37 36 37
31 47 53 56 56 55 56 56 55 55 54 52 52 53 52 49 46 45 45 44 44 44 45 44 44 43 44 44 45 45 44 45 44 44 44 43 43 43 43 41 38 35 34
28 33 50 54 55 55 55 55 55 55 54 54 54 54 52 48 47 46 46 45 45 44 44 44 43 43 43 44 44 44 44 44 44 44 44 43 43 43 42 41 40 38 35
28 29 36 50 55 56 56 55 55 54 54 55 54 53 52 49 47 47 46 46 45 44 44 43 43 42 42 43 43 43 43 43 44 44 44 43 43 42 41 41 40 39 38
27 29 32 41 51 55 56 55 55 55 55 55 54 53 51 49 47 47 46 46 45 44 44 43 42 41 41 41 41 41 42 42 43 43 43 43 43 42 41 40 40 39 39
27 28 28 35 48 53 56 55 56 55 55 55 55 53 52 49 48 48 47 47 46 44 43 42 41 40 40 40 40 40 41 41 42 42 42 42 42 41 40 40 39 39 38
28 29 28 27 35 51 53 54 55 55 55 54 53 52 52 51 50 49 48 48 46 44 43 42 41 40 39 39 39 39 40 40 41 41 42 42 41 41 40 40 39 38 37
27 28 27 27 28 32 50 54 54 55 55 54 54 52 52 52 52 52 51 49 48 45 42 41 40 40 39 38 39 39 39 39 40 40 41 41 41 41 40 39 38 37 36
25 27 28 27 29 30 33 48 53 54 54 54 53 53 52 51 51 51 50 48 46 46 44 42 40 40 40 40 40 39 38 39 39 39 38 39 39 40 41 40 39 37 36
25 23 24 26 28 31 33 39 50 52 53 53 52 52 51 51 50 49 48 47 46 46 45 44 42 41 39 41 41 40 38 38 38 37 37 37 38 39 40 40 40 39 38
20 21 24 29 31 35 38 42 46 50 50 51 51 51 50 49 48 47 47 46 45 44 43 42 41 40 38 41 42 40 37 37 37 36 36 36 37 38 38 38 36 35 34
26 29 30 31 35 37 41 42 44 46 47 47 48 48 48 47 46 45 45 44 43 43 42 42 41 40 39 42 42 38 36 35 35 35 35 36 37 39 39 36 34 34 35
30 30 31 32 34 37 40 41 41 41 43 43 43 43 44 44 44 44 43 42 42 41 41 41 41 41 39 42 43 38 35 34 34 35 35 37 37 40 39 34 32 31 32
30 30 31 31 33 36 38 38 38 38 39 39 39 39 39 39 40 40 39 39 39 40 39 38 38 40 40 42 43 38 34 34 34 34 34 37 38 40 38 32 29 27 30
28 29 28 29 30 32 34 34 33 35 36 37 37 36 36 36 36 36 35 35 35 35 35 35 35 36 36 40 42 39 36 35 34 34 34 36 38 38 38 34 30 29 30
29 29 29 29 30 30 30 30 31 33 34 35 35 35 35 34 34 34 34 33 34 33 32 33 33 34 35 38 42 40 38 37 34 35 34 35 38 37 36 34 31 30 29
28 29 29 28 27 28 29 30 31 32 32 33 33 33 33 33 33 33 33 33 32 32 32 32 32 31 32 35 40 41 39 38 35 35 35 35 37 37 35 34 32 31 29
27 27 25 24 24 25 26 27 31 31 31 31 32 32 33 33 32 32 32 32 32 32 32 32 32 32 31 33 36 39 38 37 34 33 33 33 34 34 33 33 33 32 32
28 27 26 26 27 27 28 28 28 30 31 30 31 32 32 32 31 31 31 32 32 33 33 32 30 30 30 31 35 38 38 36 34 30 30 30 31 32 31 30 31 31 31
Wind_Speed
21 18 16 13 16 13 13 20 22 20 21 15 13 12 15 13 10 11 12 13 13 13 13 11 11 9 11 10 11 8 9 5 5 8 5 5 6 6 5 5 5 7 7
16 19 21 18 22 19 13 2 9 21 24 20 15 8 11 7 9 11 12 13 14 14 13 14 12 11 11 11 11 9 7 4 6 5 4 4 1 3 5 4 5 5 5
21 21 23 24 24 26 19 11 14 16 22 22 16 9 11 7 8 12 13 15 15 15 14 14 13 12 11 13 12 11 9 8 4 5 5 4 5 3 2 5 6 6 6
21 24 27 24 24 17 24 21 22 18 19 22 22 19 19 16 16 16 11 14 15 14 14 14 14 14 11 12 11 10 9 8 9 4 3 2 4 5 4 0 4 8 8
23 28 28 28 25 23 22 25 25 25 20 22 25 22 15 15 9 11 16 16 15 14 14 14 14 14 13 12 12 11 10 7 9 6 5 3 2 4 3 5 3 4 7
22 24 27 26 22 21 21 24 28 30 25 24 23 26 23 16 13 15 18 18 14 14 15 15 16 15 14 14 13 10 10 10 7 7 7 6 4 5 4 3 3 4 4
19 19 22 24 22 23 24 25 28 24 24 24 24 23 24 23 23 20 19 20 17 16 20 19 18 16 16 14 13 13 11 11 10 11 9 6 5 5 4 5 4 3 3
11 17 20 23 23 24 24 27 30 28 25 28 28 28 28 26 22 21 19 19 20 21 17 18 18 18 17 15 14 13 11 11 10 11 8 8 7 7 6 6 8 4 2
7 13 19 23 23 24 27 28 29 30 29 30 28 27 26 24 24 23 21 20 16 13 17 20 19 19 17 17 16 14 14 12 11 11 9 8 8 7 7 6 7 6 8
9 5 14 18 22 25 27 27 28 31 29 31 30 28 25 25 23 19 24 23 19 17 18 19 20 20 18 18 18 15 12 14 11 11 11 8 7 8 7 8 7 5 5
11 10 6 14 17 19 21 23 25 24 23 23 23 24 25 24 21 19 20 17 18 22 22 22 20 21 20 18 18 17 16 17 15 12 14 14 11 11 9 8 7 7 5
18 14 6 7 14 20 21 23 24 25 27 25 21 20 17 15 19 19 19 19 19 17 21 22 22 20 21 21 20 20 16 18 18 17 14 15 11 13 11 10 9 9 7
22 20 10 7 8 14 18 21 23 25 27 25 25 23 23 21 23 21 18 19 19 19 18 21 24 24 23 23 20 19 19 20 19 18 18 16 15 14 12 11 11 7 6
21 20 18 8 7 9 13 18 18 21 20 21 21 23 25 25 24 22 20 20 21 22 21 21 21 22 22 21 20 19 17 17 16 16 17 16 18 17 15 12 12 11 10
19 19 19 12 6 7 11 12 13 13 17 20 23 26 24 23 21 20 20 20 22 21 19 19 16 16 17 20 22 21 21 19 17 14 15 15 16 16 16 14 14 13 12
20 19 18 17 8 7 8 10 12 12 14 18 20 17 19 19 21 21 21 24 22 19 19 18 18 19 16 18 23 21 21 19 20 19 14 13 14 13 14 13 15 17 17
18 14 13 14 5 3 5 7 8 8 14 16 14 15 17 19 20 19 18 17 20 21 23 24 22 22 18 21 23 22 17 20 19 19 18 15 12 14 13 12 13 12 11
8 5 6 8 6 3 0 2 5 5 7 11 12 14 14 15 13 17 20 16 14 16 17 14 17 17 16 23 22 19 14 14 16 18 19 18 18 17 17 16 13 10 9
2 2 4 4 5 6 4 5 5 6 6 4 4 7 9 11 13 14 14 17 18 16 20 23 23 18 14 21 24 23 18 17 17 16 17 18 18 19 20 20 18 14 9
6 6 9 8 8 8 6 9 7 6 3 3 5 6 8 9 10 9 10 8 11 14 13 16 17 20 20 21 23 21 16 18 18 14 14 17 18 21 21 20 20 19 15
11 9 15 15 11 6 8 12 10 8 4 6 6 5 5 6 8 10 9 11 11 11 13 13 13 14 15 18 24 23 18 18 16 16 16 14 20 21 22 19 20 18 18
15 10 18 18 15 14 14 13 13 5 4 6 6 7 7 7 9 11 9 11 14 14 13 13 12 11 13 17 22 22 19 18 19 20 16 14 20 20 21 18 18 15 18
16 13 14 18 17 18 17 18 13 8 4 6 6 5 4 4 5 7 8 8 9 9 10 11 12 13 11 10 17 21 18 20 17 14 16 19 21 19 19 18 18 18 14
17 13 17 17 19 17 19 17 15 12 9 7 6 7 6 5 3 2 4 7 9 9 11 12 12 11 12 15 14 15 16 17 13 15 15 16 17 17 14 14 14 12 13
17 16 17 17 19 18 21 19 18 16 14 10 7 6 5 5 5 4 5 6 7 9 11 11 12 15 16 18 17 18 17 16 15 15 13 13 15 16 15 14 14 12 12
17 19 19 19 19 19 21 21 21 18 15 13 10 8 6 5 4 3 4 1 3 7 8 8 12 12 8 14 21 21 21 20 23 11 14 14 16 16 15 15 14 14 15
Wind_Direction
217 200 190 168 151 163 175 186 169 164 152 158 173 184 190 186 189 194 180 173 170 167 160 156 151 155 155 155 145 122 131 118 137 114 83 62 59 70 58 53 62 64 65
209 197 192 174 165 152 145 93 221 173 168 170 182 176 180 184 182 190 190 183 178 175 168 164 166 168 156 155 157 148 136 115 167 143 122 156 114 56 36 43 56 61 55
201 203 183 174 162 152 147 104 276 202 184 172 161 129 130 116 170 200 199 198 187 182 176 175 170 176 173 172 174 168 160 150 175 200 150 145 199 154 13 44 50 61 66
198 202 199 185 183 189 150 162 212 219 197 172 175 177 187 186 197 195 191 192 187 188 182 181 179 182 182 180 177 175 171 155 165 147 151 143 146 168 167 24 57 58 57
202 197 201 198 192 181 170 174 205 206 201 186 178 180 195 196 179 169 180 190 188 191 186 186 183 185 186 188 180 174 171 174 171 158 154 146 113 112 138 176 165 70 37
213 215 205 202 198 190 190 175 202 203 194 184 182 185 190 188 186 186 187 193 189 190 193 191 189 188 186 185 186 183 180 177 171 178 173 168 169 185 154 132 135 146 56
217 213 205 211 203 184 184 179 204 198 190 185 190 190 197 199 197 197 198 183 186 193 200 192 190 190 189 186 181 182 183 185 185 178 184 177 185 157 144 132 137 146 179
248 210 204 209 208 196 184 187 195 204 190 194 197 198 205 201 201 194 196 195 196 197 182 187 188 190 185 182 181 185 188 187 189 186 177 177 178 170 166 162 155 146 163
312 229 208 201 205 204 200 195 194 199 197 201 203 210 211 216 202 197 195 192 187 184 175 182 189 191 187 181 182 185 190 188 190 192 183 178 177 174 174 170 167 161 186
14 307 223 212 204 202 204 206 207 203 197 198 204 210 214 207 209 193 193 189 180 171 175 184 189 187 187 184 182 186 187 185 191 187 185 187 180 174 172 168 165 164 162
355 353 272 222 213 207 203 204 209 213 209 202 207 206 205 199 201 202 193 193 181 175 180 186 191 185 187 188 185 190 185 191 189 189 192 193 178 181 175 169 160 166 155
318 325 307 247 220 216 213 207 212 212 213 216 214 211 210 199 200 198 190 175 193 184 182 184 185 187 185 182 188 192 189 196 194 192 195 195 180 186 181 178 186 181 172
314 314 314 289 240 220 219 214 206 210 212 210 204 202 208 203 206 201 199 183 186 184 186 183 190 188 190 179 190 190 193 197 198 194 195 192 184 186 185 189 187 186 171
298 299 299 281 275 237 245 233 208 202 205 197 198 200 200 207 207 201 192 191 191 188 186 192 194 191 186 178 183 187 193 201 198 194 195 190 188 188 185 190 191 178 171
294 287 284 287 244 250 234 241 236 209 197 201 201 205 202 203 204 201 193 190 195 193 182 183 191 191 188 181 181 182 190 194 197 196 196 193 193 190 184 181 183 175 172
294 290 281 272 247 239 245 238 229 215 191 203 211 204 197 195 196 198 193 187 186 181 175 185 189 192 199 194 182 177 183 186 188 191 190 185 179 184 178 179 179 180 176
291 294 293 277 290 245 205 235 231 203 202 206 205 201 192 189 190 174 187 181 188 185 191 189 184 199 194 180 180 177 174 180 185 186 182 174 175 171 169 167 171 180 180
271 293 328 328 354 12 48 163 189 186 211 213 202 191 183 191 188 183 181 187 176 187 189 183 186 186 177 172 175 168 169 176 187 182 183 176 171 170 163 157 160 160 161
40 11 17 353 8 47 65 107 126 163 171 198 180 172 176 174 175 186 182 189 176 177 178 176 174 178 183 183 161 168 175 179 197 185 182 177 171 169 161 161 164 161 162
39 46 55 47 45 33 81 101 98 108 134 186 198 183 176 177 186 184 175 171 163 178 179 175 186 180 173 188 174 171 174 177 189 184 183 181 176 171 170 171 169 172 175
56 62 66 56 37 39 77 79 81 69 86 131 142 153 158 169 175 171 175 171 159 156 163 164 168 172 178 198 182 180 174 181 176 182 185 184 185 183 178 177 177 183 168
59 44 71 56 35 42 71 69 53 17 66 106 120 128 138 145 155 164 156 157 160 162 162 161 167 170 171 183 183 177 179 170 178 190 186 184 186 184 183 183 186 175 165
63 42 49 64 44 39 47 49 22 31 67 94 103 105 106 105 133 151 153 154 156 163 168 175 180 185 175 185 191 182 179 176 184 178 178 179 184 185 185 183 184 177 168
48 42 52 46 48 36 36 31 20 24 42 64 90 102 103 97 84 106 160 170 177 178 183 188 191 183 183 183 181 184 182 181 179 172 172 178 178 182 178 176 182 171 175
51 48 52 48 41 34 32 23 19 27 36 38 50 71 87 112 133 145 181 201 209 199 201 203 192 188 204 208 189 177 180 179 175 157 157 169 171 174 177 179 181 182 186
44 49 48 45 36 35 32 21 19 27 36 40 33 49 66 74 77 101 87 149 234 211 210 198 193 204 202 183 190 189 186 178 164 159 173 176 178 183 182 187 194 195 201